METEOR 2-11 DEB

Satellite information

Favourite Embed

Satellite Type and Status

DEBRISIN ORBIT

Key statistics

Satellite METEOR 2-11 DEB at a glance.

Uptime

15037

Days in orbit

Revolutions

≈ 14.0

Per day

Orbit

LEO

Low Earth Orbit

Inclination

82.5

Latest

Satellite identification and parameters

Extended collection of information and parameters for METEOR 2-11 DEB.

Object identification

Identified? True

Debris? True

Object name: METEOR 2-11 DEB

International designator: 1984-072Z

Object number (NORAD): 60004

Object ID (CCSDS): 60004

Country: COMMONWEALTH OF INDEPENDENT STATES (CIS)

Current information (Y/N): Y

RCS size: SMALL

Orbital parameters

Period: 102.898 minutes

Inclination: 82.515 deg

SMA: 7273.837 km

Apoapsis: 907.0 km

Periapsis: 884.405 km

RAAN: 269.6629 deg

Eccentricy: 0.0015532

Argument of periapsis: 116.9112 deg

Mean anomaly: 243.3646 deg

Mean motion: 13.99449993 rev/day

Mean motion (dot): 0.00001273 rev/day2

B* drag term: 0.00086343 1/REarth

Two-line elements (TLE)

Creation date: July 21, 2025, 6:25 p.m.

Reference frame: TEME

Reference center: EARTH

Epoch: July 21, 2025, 11:38 a.m. UTC

TLE line 0: 0 METEOR 2-11 DEB

TLE line 1: 1 60004U 84072Z 25202.48494849 .00001273 00000-0 86343-3 0 9992

TLE line 2: 2 60004 82.5150 269.6629 0015532 116.9112 243.3646 13.99449993417932

Live tracking on map

Real-time ground track for satellite METEOR 2-11 DEB.

In-orbit conjunctions

A list of the most updated potential collisions computed for object METEOR 2-11 DEB.

Target Orbit TCA Probability of collision Miss distance Type
CZ-6A DEB LEO 2024-09-28 20:42:35 0.0002171969 347.0 (m) DEBRIS
COSMOS 1275 DEB LEO 2024-06-30 21:43:13 0.0001422367 395.0 (m) DEBRIS

Associated space launch

Second generation soviet meteorological satellite

METEOR 2-11 DEB was lifted into orbit during the mission ‘Tsiklon-3 | Meteor-2 11’, on board a Tsiklon-3 space rocket.

The launch took place on July 5, 1984, 3:35 a.m. from 32/2.

For more information about the launch, click the button.

Launch to space Tsiklon-3 | Meteor-2 11
Tsiklon-3 | Meteor-2 11

Agency: N/A

Status: Launch Successful

Launch date: July 5, 1984, 3:35 a.m. UTC

Rocket: Tsiklon-3

Launch pad: 32/2

Location: Plesetsk Cosmodrome, Russian Federation

...

Latest news about this satellite

There are no fresh news available about this satellite. Check back as we update our databases every day.


Newsletter sign-up

Weekly statistics, charts and insights to help you stay on top of the space industry.